When you browse on this site, cookies collect data to enhance your experience and personalize the content and advertising you see.
Visit our Privacy Policy to learn more. By continuing to use the site, you agree to this use of cookies and data.
  • In United Kingdom
  • List of Countries
  • For 7 days
  • Water Temperature
  • Satellite Maps
  • Weather Map
  • Weather Widgets
  • user-avatar
    Login

    Hourly Weather Gjirokaster

    Today, 24 July, Wednesday

    Time Temperature Precipitation Wind Pressure Humidity
    00:00 +17°C° 0 mm 2 mps 652 mmHg 68%
    01:00 +18°C° 0 mm 1 mps 652 mmHg 69%
    02:00 +17°C° 0 mm 2 mps 651 mmHg 69%
    03:00 +16°C° 0 mm 2 mps 651 mmHg 69%
    04:00 +16°C° 0 mm 2 mps 651 mmHg 69%
    05:00 +17°C° 0 mm 2 mps 651 mmHg 64%
    06:00 +19°C° 0 mm 2 mps 652 mmHg 59%
    07:00 +20°C° 0 mm 2 mps 652 mmHg 54%
    08:00 +23°C° 0 mm 1 mps 653 mmHg 49%
    09:00 +24°C° 0 mm 1 mps 653 mmHg 43%
    10:00 +26°C° 0 mm 1 mps 654 mmHg 38%
    11:00 +26°C° 0 mm 2 mps 654 mmHg 37%
    12:00 +27°C° 0 mm 2 mps 654 mmHg 36%
    13:00 +27°C° 0 mm 2 mps 654 mmHg 35%
    14:00 +27°C° 0 mm 2 mps 654 mmHg 36%
    15:00 +27°C° 0 mm 2 mps 653 mmHg 36%
    16:00 +27°C° 0 mm 2 mps 653 mmHg 37%
    17:00 +25°C° 0 mm 2 mps 653 mmHg 43%
    18:00 +23°C° 0 mm 2 mps 653 mmHg 50%
    19:00 +21°C° 0 mm 1 mps 652 mmHg 56%
    20:00 +20°C° 0 mm 2 mps 652 mmHg 57%
    21:00 +19°C° 0 mm 2 mps 653 mmHg 58%
    22:00 +18°C° 0 mm 2 mps 653 mmHg 59%
    23:00 +18°C° 0 mm 2 mps 652 mmHg 59%

    Tomorrow, 25 July, Thursday

    Time Temperature Precipitation Wind Pressure Humidity
    00:00 +17°C° 0 mm 2 mps 652 mmHg 59%
    01:00 +17°C° 0 mm 2 mps 652 mmHg 59%
    02:00 +16°C° 0 mm 2 mps 652 mmHg 59%
    03:00 +16°C° 0 mm 2 mps 652 mmHg 58%
    04:00 +16°C° 0 mm 2 mps 652 mmHg 58%
    05:00 +18°C° 0 mm 1 mps 653 mmHg 55%
    06:00 +19°C° 0 mm 1 mps 653 mmHg 53%
    07:00 +21°C° 0 mm 1 mps 654 mmHg 50%
    08:00 +22°C° 0 mm 1 mps 655 mmHg 47%
    09:00 +24°C° 0 mm 1 mps 655 mmHg 44%
    10:00 +25°C° 0 mm 1 mps 656 mmHg 40%
    11:00 +26°C° 0 mm 1 mps 656 mmHg 39%
    12:00 +26°C° 0 mm 2 mps 656 mmHg 39%
    13:00 +26°C° 0 mm 2 mps 655 mmHg 38%
    14:00 +26°C° 0 mm 2 mps 655 mmHg 41%
    15:00 +25°C° 0 mm 2 mps 655 mmHg 45%
    16:00 +25°C° 0 mm 3 mps 654 mmHg 48%
    17:00 +23°C° 0 mm 2 mps 654 mmHg 55%
    18:00 +20°C° 0 mm 2 mps 654 mmHg 62%
    19:00 +20°C° 0 mm 1 mps 653 mmHg 68%
    20:00 +19°C° 0 mm 1 mps 653 mmHg 70%
    21:00 +19°C° 0 mm 1 mps 653 mmHg 72%
    22:00 +18°C° 0 mm 1 mps 653 mmHg 73%
    23:00 +18°C° 0 mm 1 mps 653 mmHg 72%

    Day after tomorrow, 26 July, Friday

    Time Temperature Precipitation Wind Pressure Humidity
    00:00 +18°C° 0 mm 1 mps 653 mmHg 72%
    01:00 +16°C° 0 mm 1 mps 653 mmHg 71%
    02:00 +16°C° 0 mm 1 mps 652 mmHg 70%
    03:00 +16°C° 0 mm 1 mps 652 mmHg 70%
    04:00 +15°C° 0 mm 0 mps 652 mmHg 70%
    05:00 +16°C° 0 mm 0 mps 652 mmHg 65%
    06:00 +18°C° 0 mm 0 mps 653 mmHg 61%
    07:00 +19°C° 0 mm 0 mps 653 mmHg 56%
    08:00 +23°C° 0 mm 1 mps 653 mmHg 53%
    09:00 +24°C° 0 mm 1 mps 654 mmHg 49%
    10:00 +25°C° 0 mm 1 mps 654 mmHg 46%
    11:00 +25°C° 0 mm 1 mps 654 mmHg 45%
    12:00 +26°C° 0 mm 2 mps 653 mmHg 45%
    13:00 +26°C° 0 mm 2 mps 653 mmHg 44%
    14:00 +25°C° 0 mm 2 mps 653 mmHg 47%
    15:00 +25°C° 0 mm 2 mps 652 mmHg 49%
    16:00 +24°C° 0 mm 2 mps 652 mmHg 51%
    17:00 +23°C° 0 mm 2 mps 651 mmHg 56%
    18:00 +21°C° 0 mm 1 mps 651 mmHg 62%
    19:00 +19°C° 0 mm 1 mps 650 mmHg 67%
    20:00 +19°C° 0 mm 1 mps 650 mmHg 68%
    21:00 +19°C° 0 mm 1 mps 650 mmHg 69%
    22:00 +16°C° 0 mm 0 mps 650 mmHg 71%
    23:00 +16°C° 0 mm 0 mps 650 mmHg 72%

    27 July, Saturday

    Time Temperature Precipitation Wind Pressure Humidity
    00:00 +15°C° 0 mm 0 mps 649 mmHg 74%
    01:00 +15°C° 0 mm 0 mps 649 mmHg 76%
    02:00 +15°C° 0 mm 0 mps 649 mmHg 76%
    03:00 +14°C° 0 mm 0 mps 648 mmHg 76%
    04:00 +15°C° 0 mm 1 mps 648 mmHg 77%
    05:00 +18°C° 0 mm 1 mps 649 mmHg 71%
    06:00 +17°C° 0 mm 0 mps 649 mmHg 66%
    07:00 +19°C° 0 mm 0 mps 650 mmHg 61%
    08:00 +22°C° 0 mm 1 mps 650 mmHg 56%
    09:00 +24°C° 0 mm 1 mps 650 mmHg 51%
    10:00 +25°C° 0 mm 1 mps 651 mmHg 46%
    11:00 +25°C° 0 mm 2 mps 651 mmHg 44%
    12:00 +26°C° 0 mm 2 mps 650 mmHg 43%
    13:00 +26°C° 0 mm 2 mps 650 mmHg 41%
    14:00 +26°C° 0 mm 2 mps 650 mmHg 43%
    15:00 +25°C° 0 mm 2 mps 649 mmHg 45%
    16:00 +25°C° 0 mm 2 mps 649 mmHg 47%
    17:00 +23°C° 0 mm 1 mps 648 mmHg 53%
    18:00 +21°C° 0 mm 1 mps 648 mmHg 60%
    19:00 +20°C° 0 mm 1 mps 647 mmHg 66%
    20:00 +19°C° 0 mm 1 mps 647 mmHg 68%
    21:00 +19°C° 0 mm 1 mps 647 mmHg 69%
    22:00 +18°C° 0 mm 1 mps 647 mmHg 71%
    23:00 +18°C° 0 mm 1 mps 647 mmHg 70%

    28 July, Sunday

    Time Temperature Precipitation Wind Pressure Humidity
    00:00 +16°C° 0 mm 1 mps 647 mmHg 70%
    01:00 +16°C° 0 mm 2 mps 646 mmHg 69%
    02:00 +16°C° 0 mm 2 mps 646 mmHg 68%
    03:00 +15°C° 0 mm 2 mps 646 mmHg 67%
    04:00 +15°C° 0 mm 2 mps 646 mmHg 65%
    05:00 +17°C° 0 mm 2 mps 646 mmHg 60%
    06:00 +18°C° 0 mm 2 mps 647 mmHg 56%
    07:00 +20°C° 0 mm 2 mps 647 mmHg 51%
    08:00 +21°C° 0 mm 2 mps 648 mmHg 48%
    09:00 +23°C° 0 mm 2 mps 648 mmHg 45%
    10:00 +25°C° 0 mm 3 mps 648 mmHg 43%
    11:00 +25°C° 0 mm 3 mps 648 mmHg 45%
    12:00 +25°C° 0 mm 3 mps 648 mmHg 46%
    13:00 +25°C° 0 mm 3 mps 648 mmHg 48%
    14:00 +25°C° 0 mm 3 mps 647 mmHg 48%
    15:00 +25°C° 0 mm 3 mps 647 mmHg 48%
    16:00 +25°C° 0 mm 3 mps 647 mmHg 47%
    17:00 +22°C° 0 mm 3 mps 647 mmHg 56%
    18:00 +20°C° 0 mm 3 mps 646 mmHg 66%
    19:00 +18°C° 0 mm 2 mps 645 mmHg 75%
    20:00 +17°C° 0 mm 2 mps 645 mmHg 78%
    21:00 +16°C° 0 mm 2 mps 645 mmHg 82%
    22:00 +16°C° 0 mm 2 mps 645 mmHg 85%
    23:00 +15°C° 0 mm 2 mps 645 mmHg 86%

    29 July, Monday

    Time Temperature Precipitation Wind Pressure Humidity
    00:00 +15°C° 0 mm 2 mps 645 mmHg 88%
    01:00 +15°C° 0 mm 2 mps 645 mmHg 89%
    02:00 +14°C° 0 mm 2 mps 645 mmHg 88%
    03:00 +14°C° 0 mm 1 mps 645 mmHg 88%
    04:00 +14°C° 0 mm 1 mps 645 mmHg 87%
    05:00 +15°C° 0 mm 1 mps 645 mmHg 82%
    06:00 +18°C° 0 mm 1 mps 645 mmHg 76%
    07:00 +17°C° 0 mm 0 mps 646 mmHg 71%
    08:00 +20°C° 0.1 mm 1 mps 646 mmHg 66%
    09:00 +22°C° 0.1 mm 1 mps 647 mmHg 62%
    10:00 +23°C° 0.1 mm 1 mps 647 mmHg 57%
    11:00 +23°C° 0.3 mm 2 mps 647 mmHg 57%
    12:00 +23°C° 0.3 mm 2 mps 647 mmHg 57%
    13:00 +22°C° 0.3 mm 3 mps 647 mmHg 57%
    14:00 +22°C° 0.6 mm 3 mps 647 mmHg 59%
    15:00 +21°C° 0.6 mm 3 mps 646 mmHg 60%
    16:00 +21°C° 0.6 mm 3 mps 646 mmHg 62%
    17:00 +19°C° 0.4 mm 2 mps 646 mmHg 67%
    18:00 +18°C° 0.4 mm 2 mps 646 mmHg 72%
    19:00 +17°C° 0.4 mm 2 mps 646 mmHg 77%
    20:00 +16°C° 0 mm 2 mps 646 mmHg 79%
    21:00 +15°C° 0 mm 2 mps 646 mmHg 80%
    22:00 +15°C° 0 mm 2 mps 646 mmHg 82%
    23:00 +14°C° 0 mm 2 mps 646 mmHg 82%
    Show more